AUA9047 LOWW-LGKO

Flight info

Callsign AUA9047
Flight time 2h 5m
Altitude 35000
Route ARSIN DCT NALOX DCT OSDUK DCT SOMUN DCT VABEK UL603 OLOTA DCT DISOR DCT MES UN139 OKORO/N0403F230 N139 LURUS L995 KOPAR
Aircraft A321/M-SDE3FGHIRWY/LB1

Departure

Time 2026-04-25 14:57
Airport Vienna International Airport (LOWW)

Arrival

Time 2026-04-25 17:03
Airport Kos International Airport "Ippokratis" (LGKO)
Time Latitude Longitude Altitude Speed Heading
2026-04-25 14:06 48.12003 16.56981 636 ft 0 kts 24°
2026-04-25 14:15 48.12002 16.56981 609 ft 0 kts 24°
2026-04-25 14:47 48.11982 16.56964 621 ft 4 kts 47°
2026-04-25 14:47 48.11973 16.56945 618 ft 4 kts 79°
2026-04-25 14:47 48.11974 16.56917 615 ft 0 kts 116°
2026-04-25 14:50 48.11973 16.56919 614 ft 1 kts 116°
2026-04-25 14:51 48.11961 16.56957 618 ft 5 kts 115°
2026-04-25 14:51 48.11944 16.57011 623 ft 9 kts 115°
2026-04-25 14:51 48.11913 16.57108 622 ft 10 kts 115°
2026-04-25 14:51 48.11870 16.57195 614 ft 10 kts 141°
2026-04-25 14:52 48.11830 16.57292 618 ft 12 kts 115°
2026-04-25 14:52 48.11770 16.57362 613 ft 11 kts 163°
2026-04-25 14:52 48.11665 16.57406 616 ft 17 kts 162°
2026-04-25 14:52 48.11591 16.57437 621 ft 16 kts 164°
2026-04-25 14:53 48.11460 16.57437 609 ft 14 kts 205°
2026-04-25 14:53 48.11377 16.57378 621 ft 13 kts 206°
2026-04-25 14:53 48.11292 16.57315 622 ft 13 kts 206°
2026-04-25 14:53 48.11210 16.57297 619 ft 11 kts 144°
2026-04-25 14:54 48.11166 16.57408 624 ft 14 kts 115°
2026-04-25 14:54 48.11126 16.57530 620 ft 12 kts 116°
2026-04-25 14:54 48.11090 16.57631 615 ft 10 kts 130°
2026-04-25 14:54 48.11031 16.57638 609 ft 8 kts 200°
2026-04-25 14:55 48.10984 16.57605 609 ft 7 kts 205°
2026-04-25 14:55 48.10939 16.57573 609 ft 8 kts 206°
2026-04-25 14:55 48.10919 16.57524 615 ft 5 kts 281°
2026-04-25 14:55 48.10927 16.57495 619 ft 0 kts 295°
2026-04-25 14:56 48.10932 16.57480 613 ft 8 kts 295°
2026-04-25 14:56 48.11025 16.57194 611 ft 62 kts 296°
2026-04-25 14:56 48.11302 16.56343 615 ft 117 kts 296°
2026-04-25 14:56 48.11722 16.55056 618 ft 159 kts 296°
2026-04-25 14:57 48.12187 16.53474 984 ft 168 kts 282°
2026-04-25 14:57 48.11903 16.51816 1547 ft 175 kts 234°
2026-04-25 14:57 48.10984 16.50563 2004 ft 186 kts 223°
2026-04-25 14:57 48.09881 16.49338 2154 ft 209 kts 220°
2026-04-25 14:58 48.08643 16.48008 2375 ft 230 kts 219°
2026-04-25 14:58 48.07059 16.47129 2556 ft 261 kts 185°
2026-04-25 14:58 48.05211 16.47353 3180 ft 271 kts 175°
2026-04-25 14:58 48.03331 16.47764 3875 ft 275 kts 174°
2026-04-25 14:59 48.01451 16.48198 4579 ft 279 kts 174°
2026-04-25 14:59 47.99510 16.48629 4913 ft 284 kts 174°
2026-04-25 14:59 47.97557 16.48879 4999 ft 279 kts 187°
2026-04-25 14:59 47.95704 16.48197 5021 ft 273 kts 209°
2026-04-25 15:00 47.95129 16.47765 5092 ft 275 kts 212°
2026-04-25 15:00 47.92305 16.45549 6319 ft 277 kts 211°
2026-04-25 15:00 47.90589 16.44215 7015 ft 279 kts 212°
2026-04-25 15:00 47.88774 16.43135 7685 ft 286 kts 196°
2026-04-25 15:01 47.86806 16.42856 8331 ft 293 kts 179°
2026-04-25 15:01 47.84788 16.43430 8970 ft 299 kts 167°
2026-04-25 15:01 47.82779 16.44250 9626 ft 300 kts 168°
2026-04-25 15:01 47.80749 16.45065 10221 ft 305 kts 168°
2026-04-25 15:02 47.78630 16.45904 10364 ft 325 kts 168°
2026-04-25 15:02 47.76379 16.46789 10493 ft 344 kts 168°
2026-04-25 15:02 47.74004 16.47720 10616 ft 362 kts 167°
2026-04-25 15:02 47.71516 16.48698 10807 ft 376 kts 167°
2026-04-25 15:03 47.69002 16.49705 11229 ft 382 kts 165°
2026-04-25 15:03 47.66537 16.51263 11719 ft 389 kts 152°
2026-04-25 15:03 47.64325 16.53627 12200 ft 395 kts 138°
2026-04-25 15:03 47.62501 16.56688 12676 ft 399 kts 125°
2026-04-25 15:04 47.61157 16.60308 13137 ft 403 kts 113°
2026-04-25 15:04 47.60043 16.64132 13626 ft 406 kts 113°
2026-04-25 15:04 47.58708 16.67828 14047 ft 409 kts 125°
2026-04-25 15:04 47.56850 16.71020 14475 ft 411 kts 139°
2026-04-25 15:05 47.54561 16.73530 14898 ft 410 kts 152°
2026-04-25 15:05 47.51995 16.75224 15319 ft 409 kts 165°
2026-04-25 15:05 47.49222 16.76068 15725 ft 407 kts 178°
2026-04-25 15:06 47.43560 16.76603 16519 ft 409 kts 179°
2026-04-25 15:06 47.40712 16.76907 16884 ft 412 kts 175°
2026-04-25 15:06 47.37925 16.78008 17230 ft 420 kts 158°
2026-04-25 15:06 47.35349 16.80097 17576 ft 424 kts 152°
2026-04-25 15:07 47.32802 16.82322 17922 ft 427 kts 151°
2026-04-25 15:07 47.30247 16.84574 18279 ft 429 kts 151°
2026-04-25 15:07 47.27684 16.86842 18582 ft 431 kts 151°
2026-04-25 15:07 47.25141 16.89089 18897 ft 433 kts 152°
2026-04-25 15:08 47.22553 16.91367 19222 ft 434 kts 152°
2026-04-25 15:08 47.19954 16.93645 19546 ft 436 kts 152°
2026-04-25 15:08 47.17341 16.95928 19890 ft 438 kts 152°
2026-04-25 15:08 47.14718 16.98210 20223 ft 439 kts 152°
2026-04-25 15:09 47.12081 17.00498 20558 ft 441 kts 152°
2026-04-25 15:09 47.09437 17.02799 20901 ft 443 kts 152°
2026-04-25 15:09 47.04116 17.07427 21593 ft 446 kts 152°
2026-04-25 15:10 47.01442 17.09748 21943 ft 448 kts 152°
2026-04-25 15:10 46.98756 17.12077 22275 ft 450 kts 152°
2026-04-25 15:10 46.93381 17.16720 22929 ft 453 kts 152°
2026-04-25 15:11 46.90657 17.19070 23244 ft 455 kts 152°
2026-04-25 15:11 46.87920 17.21429 23559 ft 457 kts 152°
2026-04-25 15:11 46.85174 17.23795 23817 ft 459 kts 152°
2026-04-25 15:12 46.79650 17.28557 24336 ft 463 kts 152°
2026-04-25 15:12 46.76866 17.30945 24592 ft 465 kts 153°
2026-04-25 15:12 46.74076 17.33333 24853 ft 466 kts 153°
2026-04-25 15:12 46.73167 17.34110 24938 ft 467 kts 153°
2026-04-25 15:13 46.68461 17.38133 25366 ft 469 kts 153°
2026-04-25 15:13 46.62849 17.42920 25864 ft 472 kts 153°
2026-04-25 15:13 46.60006 17.45341 26107 ft 474 kts 153°
2026-04-25 15:14 46.57156 17.47767 26333 ft 475 kts 153°
2026-04-25 15:14 46.54298 17.50195 26566 ft 477 kts 153°
2026-04-25 15:14 46.51431 17.52632 26776 ft 478 kts 153°
2026-04-25 15:14 46.48553 17.55078 26982 ft 479 kts 153°
2026-04-25 15:15 46.45670 17.57520 27184 ft 481 kts 153°
2026-04-25 15:15 46.42778 17.59967 27362 ft 482 kts 153°
2026-04-25 15:15 46.39919 17.62383 27538 ft 483 kts 153°
2026-04-25 15:15 46.37013 17.64838 27706 ft 484 kts 153°
2026-04-25 15:16 46.34104 17.67290 27923 ft 484 kts 153°
2026-04-25 15:16 46.31196 17.69736 28171 ft 483 kts 153°
2026-04-25 15:16 46.25398 17.74601 28641 ft 481 kts 153°
2026-04-25 15:17 46.19612 17.79444 29112 ft 480 kts 153°
2026-04-25 15:17 46.16724 17.81858 29340 ft 479 kts 153°
2026-04-25 15:17 46.13877 17.84234 29564 ft 479 kts 153°
2026-04-25 15:18 46.10996 17.86636 29792 ft 478 kts 153°
2026-04-25 15:18 46.05245 17.91428 30208 ft 477 kts 153°
2026-04-25 15:18 46.02374 17.93817 30381 ft 477 kts 153°
2026-04-25 15:19 45.99504 17.96204 30563 ft 476 kts 153°
2026-04-25 15:19 45.98578 17.96973 30616 ft 476 kts 153°
2026-04-25 15:19 45.93803 18.00930 30910 ft 476 kts 153°
2026-04-25 15:19 45.90935 18.03302 31091 ft 476 kts 153°
2026-04-25 15:20 45.88067 18.05676 31270 ft 476 kts 153°
2026-04-25 15:20 45.85199 18.08047 31447 ft 476 kts 153°
2026-04-25 15:20 45.82334 18.10409 31617 ft 476 kts 153°
2026-04-25 15:20 45.79465 18.12767 31787 ft 476 kts 153°
2026-04-25 15:21 45.76594 18.15129 31976 ft 476 kts 153°
2026-04-25 15:21 45.73728 18.17503 32134 ft 476 kts 153°
2026-04-25 15:21 45.70870 18.19890 32309 ft 476 kts 153°
2026-04-25 15:21 45.68055 18.22246 32479 ft 476 kts 153°
2026-04-25 15:22 45.65197 18.24634 32657 ft 475 kts 153°
2026-04-25 15:22 45.62340 18.27017 32829 ft 475 kts 153°
2026-04-25 15:22 45.59482 18.29394 33000 ft 475 kts 153°
2026-04-25 15:22 45.56621 18.31767 33175 ft 475 kts 153°
2026-04-25 15:23 45.53763 18.34131 33358 ft 475 kts 153°
2026-04-25 15:23 45.50901 18.36492 33508 ft 475 kts 153°
2026-04-25 15:23 45.48035 18.38853 33672 ft 475 kts 153°
2026-04-25 15:23 45.45175 18.41209 33827 ft 475 kts 153°
2026-04-25 15:24 45.42350 18.43535 33976 ft 475 kts 153°
2026-04-25 15:24 45.39487 18.45893 34134 ft 475 kts 153°
2026-04-25 15:24 45.36626 18.48246 34270 ft 475 kts 153°
2026-04-25 15:24 45.35658 18.49043 34316 ft 475 kts 153°
2026-04-25 15:25 45.30905 18.52951 34544 ft 475 kts 153°
2026-04-25 15:25 45.28041 18.55300 34678 ft 475 kts 153°
2026-04-25 15:25 45.25178 18.57640 34810 ft 475 kts 153°
2026-04-25 15:25 45.22319 18.59972 34964 ft 474 kts 153°
2026-04-25 15:26 45.16637 18.64604 35001 ft 474 kts 153°
2026-04-25 15:26 45.10925 18.69259 35008 ft 473 kts 153°
2026-04-25 15:27 45.05214 18.73895 35005 ft 473 kts 153°
2026-04-25 15:28 44.96647 18.80823 34997 ft 473 kts 153°
2026-04-25 15:28 44.90969 18.85401 35009 ft 473 kts 153°
2026-04-25 15:29 44.85254 18.90001 35006 ft 473 kts 153°
2026-04-25 15:29 44.79535 18.94599 35006 ft 473 kts 153°
2026-04-25 15:30 44.73813 18.99184 35009 ft 473 kts 153°
2026-04-25 15:30 44.68090 19.03760 35009 ft 473 kts 153°
2026-04-25 15:31 44.62404 19.08286 35001 ft 473 kts 152°
2026-04-25 15:31 44.56847 19.13230 35006 ft 474 kts 146°
2026-04-25 15:32 44.51452 19.18548 35018 ft 474 kts 147°
2026-04-25 15:32 44.46043 19.23831 35017 ft 474 kts 147°
2026-04-25 15:33 44.37970 19.31717 35015 ft 474 kts 146°
2026-04-25 15:33 44.32559 19.36969 35019 ft 474 kts 146°
2026-04-25 15:34 44.27146 19.42228 35020 ft 474 kts 146°
2026-04-25 15:34 44.23559 19.45710 35025 ft 474 kts 146°
2026-04-25 15:35 44.13640 19.55303 35029 ft 474 kts 146°
2026-04-25 15:36 44.05504 19.63134 35034 ft 474 kts 146°
2026-04-25 15:36 44.00078 19.68347 35034 ft 474 kts 146°
2026-04-25 15:37 43.94692 19.73511 35036 ft 474 kts 146°
2026-04-25 15:37 43.89259 19.78693 35040 ft 474 kts 146°
2026-04-25 15:38 43.83831 19.83869 35041 ft 474 kts 146°
2026-04-25 15:38 43.78440 19.89006 35042 ft 473 kts 146°
2026-04-25 15:39 43.73011 19.94162 35041 ft 473 kts 146°
2026-04-25 15:39 43.67581 19.99305 35040 ft 473 kts 146°
2026-04-25 15:40 43.63984 20.02706 35041 ft 473 kts 146°
2026-04-25 15:40 43.57637 20.08699 35041 ft 473 kts 146°
2026-04-25 15:41 43.51329 20.14637 35041 ft 472 kts 146°
2026-04-25 15:41 43.45901 20.19732 35047 ft 472 kts 146°
2026-04-25 15:42 43.41389 20.23961 35044 ft 472 kts 146°
2026-04-25 15:42 43.35963 20.29040 35043 ft 472 kts 145°
2026-04-25 15:43 43.29653 20.34919 35047 ft 471 kts 145°
2026-04-25 15:43 43.25141 20.39115 35046 ft 471 kts 145°
2026-04-25 15:44 43.19716 20.44153 35048 ft 471 kts 145°
2026-04-25 15:44 43.14289 20.49187 35046 ft 471 kts 145°
2026-04-25 15:45 43.07988 20.55025 35047 ft 471 kts 145°
2026-04-25 15:45 43.04358 20.58377 35047 ft 470 kts 145°
2026-04-25 15:46 42.98339 20.64664 35046 ft 468 kts 135°
2026-04-25 15:46 42.93641 20.70828 35044 ft 468 kts 135°
2026-04-25 15:47 42.88935 20.76975 35043 ft 468 kts 135°
2026-04-25 15:47 42.84224 20.83109 35044 ft 468 kts 135°
2026-04-25 15:48 42.79548 20.89187 35051 ft 468 kts 135°
2026-04-25 15:48 42.74840 20.95296 35050 ft 467 kts 135°
2026-04-25 15:49 42.70134 21.01391 35050 ft 467 kts 135°
2026-04-25 15:49 42.65419 21.07468 35046 ft 467 kts 135°
2026-04-25 15:50 42.60742 21.13493 35048 ft 466 kts 134°
2026-04-25 15:50 42.56039 21.19563 35046 ft 466 kts 134°
2026-04-25 15:51 42.52129 21.24586 35049 ft 466 kts 134°
2026-04-25 15:51 42.46642 21.31597 35042 ft 466 kts 134°
2026-04-25 15:52 42.41924 21.37609 35040 ft 466 kts 134°
2026-04-25 15:52 42.37205 21.43623 35036 ft 466 kts 134°
2026-04-25 15:53 42.32483 21.49631 35030 ft 466 kts 134°
2026-04-25 15:53 42.27761 21.55626 35020 ft 466 kts 134°
2026-04-25 15:54 42.23070 21.61577 35018 ft 466 kts 135°
2026-04-25 15:54 42.18257 21.67436 35013 ft 466 kts 136°
2026-04-25 15:55 42.13349 21.73159 35016 ft 466 kts 137°
2026-04-25 15:55 42.08476 21.78830 35012 ft 466 kts 136°
2026-04-25 15:56 42.03592 21.84571 35016 ft 466 kts 136°
2026-04-25 15:56 41.98721 21.90318 35019 ft 466 kts 136°
2026-04-25 15:57 41.93842 21.96047 35015 ft 465 kts 136°
2026-04-25 15:57 41.88959 22.01746 35014 ft 465 kts 136°
2026-04-25 15:58 41.84117 22.07406 35014 ft 465 kts 136°
2026-04-25 15:58 41.79242 22.13098 35000 ft 464 kts 136°
2026-04-25 15:59 41.74367 22.18769 35008 ft 464 kts 136°
2026-04-25 15:59 41.69523 22.24384 35010 ft 463 kts 136°
2026-04-25 16:00 41.65439 22.29099 35013 ft 463 kts 136°
2026-04-25 16:00 41.59781 22.35636 35012 ft 462 kts 136°
2026-04-25 16:01 41.54926 22.41244 34997 ft 461 kts 136°
2026-04-25 16:01 41.50081 22.46834 35005 ft 460 kts 136°
2026-04-25 16:02 41.45264 22.52367 35005 ft 460 kts 136°
2026-04-25 16:02 41.40414 22.57913 35005 ft 459 kts 136°
2026-04-25 16:03 41.35566 22.63456 35007 ft 459 kts 136°
2026-04-25 16:03 41.30730 22.68989 35008 ft 458 kts 136°
2026-04-25 16:04 41.25918 22.74470 35019 ft 459 kts 136°
2026-04-25 16:04 41.21048 22.79959 35023 ft 459 kts 136°
2026-04-25 16:05 41.16146 22.85392 35031 ft 459 kts 136°
2026-04-25 16:06 41.08795 22.93511 35031 ft 458 kts 136°
2026-04-25 16:06 41.03946 22.98876 35036 ft 457 kts 136°
2026-04-25 16:07 40.99069 23.04264 35031 ft 456 kts 136°
2026-04-25 16:07 40.94187 23.09623 35029 ft 456 kts 136°
2026-04-25 16:08 40.89314 23.14976 35028 ft 455 kts 136°
2026-04-25 16:08 40.84484 23.20288 35034 ft 455 kts 136°
2026-04-25 16:09 40.79622 23.25613 35031 ft 454 kts 136°
2026-04-25 16:09 40.74759 23.30921 35035 ft 453 kts 136°
2026-04-25 16:10 40.69905 23.36214 35036 ft 453 kts 136°
2026-04-25 16:10 40.65053 23.41496 35037 ft 452 kts 136°
2026-04-25 16:11 40.60229 23.46732 35034 ft 452 kts 136°
2026-04-25 16:11 40.55383 23.51987 35039 ft 451 kts 136°
2026-04-25 16:12 40.50543 23.57233 35042 ft 451 kts 136°
2026-04-25 16:12 40.45697 23.62461 35033 ft 450 kts 136°
2026-04-25 16:13 40.40891 23.67646 35032 ft 450 kts 136°
2026-04-25 16:13 40.36056 23.72854 35040 ft 450 kts 136°
2026-04-25 16:14 40.31219 23.78044 35039 ft 449 kts 136°
2026-04-25 16:14 40.26381 23.83219 35037 ft 449 kts 136°
2026-04-25 16:15 40.21578 23.88347 35039 ft 449 kts 137°
2026-04-25 16:15 40.16743 23.93506 35041 ft 448 kts 137°
2026-04-25 16:16 40.11911 23.98666 35037 ft 448 kts 137°
2026-04-25 16:16 40.07077 24.03815 35038 ft 448 kts 137°
2026-04-25 16:17 40.02269 24.08919 35037 ft 448 kts 137°
2026-04-25 16:17 39.97424 24.14048 35041 ft 449 kts 137°
2026-04-25 16:18 39.92577 24.19170 35038 ft 449 kts 137°
2026-04-25 16:18 39.87730 24.24290 35037 ft 448 kts 137°
2026-04-25 16:19 39.82919 24.29363 35036 ft 448 kts 137°
2026-04-25 16:19 39.78070 24.34464 35033 ft 448 kts 137°
2026-04-25 16:20 39.70785 24.42100 35033 ft 449 kts 137°
2026-04-25 16:21 39.63492 24.49728 35028 ft 449 kts 137°
2026-04-25 16:21 39.58658 24.54773 35033 ft 449 kts 138°
2026-04-25 16:22 39.53784 24.59848 35030 ft 449 kts 138°
2026-04-25 16:22 39.48907 24.64921 35035 ft 450 kts 138°
2026-04-25 16:23 39.44026 24.69988 35033 ft 450 kts 138°
2026-04-25 16:23 39.39181 24.75018 35033 ft 449 kts 138°
2026-04-25 16:24 39.34302 24.80072 35031 ft 449 kts 138°
2026-04-25 16:24 39.29417 24.85111 35029 ft 449 kts 139°
2026-04-25 16:25 39.24530 24.90139 35032 ft 449 kts 139°
2026-04-25 16:25 39.19682 24.95126 35033 ft 449 kts 139°
2026-04-25 16:26 39.14802 25.00138 35032 ft 448 kts 139°
2026-04-25 16:26 39.09925 25.05136 35035 ft 448 kts 139°
2026-04-25 16:27 39.05047 25.10121 35035 ft 447 kts 139°
2026-04-25 16:27 39.00205 25.15065 35037 ft 447 kts 139°
2026-04-25 16:28 38.95338 25.20026 35032 ft 446 kts 139°
2026-04-25 16:28 38.90474 25.24976 35034 ft 446 kts 139°
2026-04-25 16:29 38.85612 25.29917 35028 ft 446 kts 139°
2026-04-25 16:29 38.80788 25.34816 35031 ft 445 kts 139°
2026-04-25 16:30 38.75931 25.39727 35014 ft 445 kts 139°
2026-04-25 16:30 38.71068 25.44627 35017 ft 445 kts 139°
2026-04-25 16:31 38.66210 25.49526 35014 ft 445 kts 139°
2026-04-25 16:31 38.61385 25.54396 35012 ft 445 kts 140°
2026-04-25 16:32 38.56519 25.59287 35009 ft 445 kts 140°
2026-04-25 16:32 38.51649 25.64170 35012 ft 445 kts 140°
2026-04-25 16:33 38.46805 25.69016 35008 ft 445 kts 140°
2026-04-25 16:33 38.41926 25.73888 35002 ft 445 kts 141°
2026-04-25 16:34 38.37046 25.78746 34996 ft 445 kts 141°
2026-04-25 16:34 38.32171 25.83600 34994 ft 445 kts 141°
2026-04-25 16:35 38.27330 25.88414 34982 ft 444 kts 143°
2026-04-25 16:35 38.21895 25.92091 34979 ft 443 kts 161°
2026-04-25 16:36 38.16073 25.94704 34977 ft 444 kts 161°
2026-04-25 16:36 38.10263 25.97360 34982 ft 444 kts 161°
2026-04-25 16:37 38.04466 26.00009 34981 ft 435 kts 161°
2026-04-25 16:37 37.98891 26.02545 34985 ft 422 kts 162°
2026-04-25 16:38 37.93413 26.05029 34988 ft 420 kts 162°
2026-04-25 16:38 37.87910 26.07529 34985 ft 420 kts 162°
2026-04-25 16:39 37.82407 26.10009 34983 ft 420 kts 162°
2026-04-25 16:39 37.76890 26.12494 34922 ft 420 kts 162°
2026-04-25 16:39 37.74186 26.13715 34469 ft 417 kts 162°
2026-04-25 16:40 37.71464 26.14946 34004 ft 414 kts 162°
2026-04-25 16:40 37.68762 26.16169 33489 ft 410 kts 162°
2026-04-25 16:40 37.66086 26.17374 32814 ft 410 kts 163°
2026-04-25 16:40 37.63406 26.18577 32294 ft 407 kts 163°
2026-04-25 16:41 37.60757 26.19764 31835 ft 402 kts 163°
2026-04-25 16:41 37.59017 26.20543 31537 ft 399 kts 163°
2026-04-25 16:41 37.53013 26.23236 30461 ft 390 kts 163°
2026-04-25 16:42 37.50475 26.24378 29995 ft 386 kts 163°
2026-04-25 16:42 37.47958 26.25503 29438 ft 382 kts 163°
2026-04-25 16:42 37.45464 26.26618 28861 ft 379 kts 162°
2026-04-25 16:42 37.42991 26.27723 28281 ft 376 kts 162°
2026-04-25 16:43 37.40537 26.28816 27704 ft 373 kts 162°
2026-04-25 16:43 37.38098 26.29902 27149 ft 370 kts 162°
2026-04-25 16:43 37.35677 26.30983 26676 ft 366 kts 162°
2026-04-25 16:43 37.33357 26.32020 26499 ft 354 kts 162°
2026-04-25 16:44 37.31057 26.33049 26124 ft 349 kts 162°
2026-04-25 16:44 37.28774 26.34066 25583 ft 347 kts 162°
2026-04-25 16:44 37.26497 26.35074 25044 ft 348 kts 162°
2026-04-25 16:44 37.24211 26.36085 24511 ft 348 kts 162°
2026-04-25 16:45 37.21937 26.37093 23995 ft 347 kts 162°
2026-04-25 16:45 37.19655 26.38106 23469 ft 348 kts 162°
2026-04-25 16:45 37.17373 26.39120 22877 ft 348 kts 162°
2026-04-25 16:45 37.15118 26.40121 22288 ft 349 kts 162°
2026-04-25 16:46 37.12833 26.41133 21712 ft 349 kts 161°
2026-04-25 16:46 37.10542 26.42146 21139 ft 349 kts 162°
2026-04-25 16:46 37.08253 26.43157 20555 ft 348 kts 161°
2026-04-25 16:46 37.06749 26.43821 20152 ft 343 kts 161°
2026-04-25 16:47 37.03796 26.45128 19370 ft 331 kts 161°
2026-04-25 16:47 37.01643 26.46080 18801 ft 328 kts 161°
2026-04-25 16:47 36.99481 26.47035 18241 ft 331 kts 161°
2026-04-25 16:47 36.97311 26.47992 17591 ft 330 kts 161°
2026-04-25 16:48 36.95146 26.48945 16965 ft 329 kts 161°
2026-04-25 16:48 36.93023 26.49912 16347 ft 329 kts 157°
2026-04-25 16:48 36.91020 26.51282 15741 ft 329 kts 146°
2026-04-25 16:48 36.89278 26.53116 15142 ft 329 kts 135°
2026-04-25 16:49 36.87850 26.55354 14557 ft 330 kts 124°
2026-04-25 16:49 36.86789 26.57890 13979 ft 329 kts 114°
2026-04-25 16:49 36.85903 26.60501 13369 ft 324 kts 115°
2026-04-25 16:49 36.85023 26.63073 12732 ft 319 kts 115°
2026-04-25 16:50 36.84167 26.65567 12125 ft 315 kts 115°
2026-04-25 16:50 36.83242 26.68014 11519 ft 309 kts 122°
2026-04-25 16:50 36.82041 26.70201 10920 ft 303 kts 131°
2026-04-25 16:50 36.80660 26.72124 10324 ft 292 kts 134°
2026-04-25 16:51 36.79320 26.73965 9744 ft 282 kts 134°
2026-04-25 16:51 36.78025 26.75752 9113 ft 274 kts 133°
2026-04-25 16:51 36.76756 26.77502 8483 ft 270 kts 133°
2026-04-25 16:51 36.75924 26.78647 8086 ft 267 kts 133°
2026-04-25 16:52 36.74282 26.80904 7425 ft 256 kts 133°
2026-04-25 16:52 36.73122 26.82499 7010 ft 248 kts 132°
2026-04-25 16:52 36.71969 26.84088 6603 ft 248 kts 132°
2026-04-25 16:52 36.70815 26.85679 6254 ft 246 kts 131°
2026-04-25 16:53 36.68831 26.89082 5542 ft 242 kts 116°
2026-04-25 16:53 36.68089 26.90964 5178 ft 241 kts 116°
2026-04-25 16:53 36.67346 26.92829 4844 ft 240 kts 115°
2026-04-25 16:54 36.66605 26.94682 4477 ft 239 kts 116°
2026-04-25 16:54 36.65877 26.96505 4134 ft 238 kts 115°
2026-04-25 16:54 36.65141 26.98344 3999 ft 237 kts 115°
2026-04-25 16:54 36.64405 27.00186 4006 ft 238 kts 115°
2026-04-25 16:55 36.63665 27.02032 4011 ft 237 kts 116°
2026-04-25 16:55 36.62954 27.03797 4031 ft 222 kts 116°
2026-04-25 16:55 36.62271 27.05491 4007 ft 218 kts 115°
2026-04-25 16:55 36.61604 27.07146 4003 ft 209 kts 115°
2026-04-25 16:56 36.60955 27.08754 4010 ft 207 kts 115°
2026-04-25 16:56 36.60312 27.10354 4029 ft 207 kts 115°
2026-04-25 16:56 36.59725 27.11984 4010 ft 206 kts 105°
2026-04-25 16:56 36.59603 27.13659 3987 ft 191 kts 85°
2026-04-25 16:57 36.59945 27.15221 3838 ft 187 kts 69°
2026-04-25 16:57 36.60266 27.16233 3737 ft 186 kts 69°
2026-04-25 16:57 36.60881 27.18214 3582 ft 185 kts 69°
2026-04-25 16:57 36.61381 27.19688 3506 ft 185 kts 59°
2026-04-25 16:58 36.62310 27.20772 3331 ft 186 kts 27°
2026-04-25 16:58 36.63569 27.21090 3161 ft 188 kts 356°
2026-04-25 16:58 36.64797 27.20554 2984 ft 190 kts 329°
2026-04-25 16:58 36.65897 27.19687 2801 ft 189 kts 329°
2026-04-25 16:59 36.66984 27.18832 2629 ft 179 kts 329°
2026-04-25 16:59 36.67996 27.18036 2541 ft 167 kts 329°
2026-04-25 16:59 36.68966 27.17276 2498 ft 160 kts 329°
2026-04-25 16:59 36.69883 27.16558 2391 ft 154 kts 329°
2026-04-25 17:00 36.70772 27.15866 2181 ft 149 kts 330°
2026-04-25 17:00 36.71642 27.15193 1985 ft 145 kts 329°
2026-04-25 17:00 36.72491 27.14536 1790 ft 143 kts 329°
2026-04-25 17:00 36.73319 27.13895 1605 ft 141 kts 329°
2026-04-25 17:01 36.74151 27.13249 1407 ft 141 kts 328°
2026-04-25 17:01 36.74995 27.12593 1239 ft 144 kts 328°
2026-04-25 17:01 36.75845 27.11934 1024 ft 145 kts 329°
2026-04-25 17:01 36.76704 27.11264 836 ft 146 kts 329°
2026-04-25 17:02 36.77556 27.10584 667 ft 146 kts 329°
2026-04-25 17:02 36.78428 27.09911 464 ft 147 kts 330°
2026-04-25 17:02 36.79256 27.09273 410 ft 128 kts 329°
2026-04-25 17:02 36.79655 27.08961 420 ft 74 kts 327°
2026-04-25 17:03 36.79990 27.08697 415 ft 30 kts 327°
2026-04-25 17:03 36.80156 27.08572 414 ft 26 kts 328°
2026-04-25 17:03 36.80295 27.08465 416 ft 18 kts 330°
2026-04-25 17:03 36.80353 27.08515 418 ft 12 kts 91°
2026-04-25 17:04 36.80336 27.08611 421 ft 11 kts 103°
2026-04-25 17:04 36.80309 27.08688 413 ft 9 kts 137°
2026-04-25 17:04 36.80258 27.08731 417 ft 8 kts 146°
2026-04-25 17:04 36.80215 27.08765 418 ft 7 kts 149°
2026-04-25 17:05 36.80176 27.08793 415 ft 7 kts 149°
2026-04-25 17:05 36.80162 27.08804 414 ft 0 kts 148°
2026-04-25 17:05 36.80153 27.08812 414 ft 3 kts 144°
2026-04-25 17:06 36.80147 27.08831 419 ft 2 kts 94°
2026-04-25 17:06 36.80155 27.08854 419 ft 4 kts 62°
2026-04-25 17:06 36.80167 27.08876 416 ft 3 kts 57°
2026-04-25 17:06 36.80175 27.08891 416 ft 2 kts 57°
2026-04-25 17:07 36.80179 27.08899 413 ft 1 kts 58°